COSMOS 1823 DEB, 20285

Orbit data source: Space-Track

COSMOS 1823 DEB, 20285 is space debris in LEO originally from a launch on Fri, 20 Feb 1987 UTC launched from the Plesetsk Missile And Space Complex (PKMTR). Debris objects in space refer to the collection of defunct objects orbiting the Earth. Examples of debris include non-operational satellites, rocket bodies, and fragments generated from explosions, collisions, or faulty payload assembly.

Loading next visibility...
Identifier
20285, 1987-020DP
Orbit
LEO
Country
Flag of CISCIS
Related business
Manufacturer
Unknown
Mission
Spacecraft
Bus & Motor
Unknown
Mass
Unknown
Launch date (UTC)
1987-02-20 (39 years ago)
Launch vehicle
Unknown
Launch site
Plesetsk Missile And Space Complex (PKMTR)
Object type
Payload
Rocket body
Debris
Shape & HBR
Unknown shape, 0.1 m
Radar Cross Section
Medium (>0.1 m² and <1 m²)

Expand to show TLE details & history
Last TLE update: 3 days ago

TLE from 3 days ago
0 COSMOS 1823 DEB
1 20285U 87020DP  26170.89474003  .00000051  00000-0  56988-3 0  9990
2 20285  73.6417 135.9331 0079419 219.8820 168.4900 12.30538026598709
Epoch: 2026-06-19T21:28Z
TLE epoch observation values (Epoch: 2026-06-19T21:28:25.538Z)
Latitude
27.33842°
Longitude
-85.60458°
Altitude
1,611.492 km
Speed
7.039 km/s
True Right ascension
09h 38m 28s
True Declination
27° 12' 48"
Sunlit
Object was in daylight at epoch
Visualization orbit readout
Latitude
Unknown
Longitude
Unknown
Altitude
Unknown
Speed
Unknown
Apparent Right ascension
Unknown
Apparent Declination
Unknown
Sunlit
N/A
Visualization observer readout
Local Sidereal Time
06:47:46
Azimuth
Unknown
Elevation
Unknown
Doppler factor
Unknown
Orbital elements
Apogee altitude
1,607.782 km
Perigee altitude
1,481.934 km
Semi-major axis
7,922.995 km
Eccentricity
0.00794
Inclination
73.6417°
RAAN
135.9331°
Arg. of periapsis
219.882°
True anomaly
168.66984°
Mean anomaly
168.49°
Eccentric anomaly
168.5801°
Mean motion
3.07758 °/min
Orbital period
116.98 mins
BSTAR
0.00056988
Loading maneuver chart data...
Computing Atmospheric mass density...

Documentation

Showing up to 5 results
|